Weather History for Shawnee, OK

Change the Weather History Date:

Monday, February 20, 2012

  Actual Average (KTIK) Record (KTIK)
Temperature  
Mean Temperature 50 °F -  
Max Temperature 59 °F 52 °F 75 °F (2005)
Min Temperature 41 °F 33 °F 23 °F (2006)
Degree Days  
Heating Degree Days 15    
Moisture  
Dew Point 41 °F    
Average Humidity 76    
Maximum Humidity 100    
Minimum Humidity 33    
Precipitation  
Precipitation 0.18 in - - ()
Sea Level Pressure  
Sea Level Pressure 29.91 in    
Wind  
Wind Speed 13 mph (South)    
Max Wind Speed 31 mph    
Max Gust Speed 45 mph    
Visibility 9 miles    
Events Rain , Thunderstorm    
Averages and records for this station are not official NWS values.
T = Trace of Precipitation, MM = Missing Value Source: NWS Daily Summary

Daily Weather History Graph

Daily Weather History Graph

Search for Another Location

Airport:

Trip Planner

Search our weather history database for the weather conditions in past years. The results will help you decide how hot, cold, wet, or windy it might be!

Date:

Astronomy

Feb. 20, 2012 Rise Set
Actual Time 7:09 AM CST 6:14 PM CST
Civil Twilight 6:43 AM CST 6:40 PM CST
Nautical Twilight 6:13 AM CST 7:09 PM CST
Astronomical Twilight 5:44 AM CST 7:39 PM CST
Moon 6:05 AM CST (2/20) 5:20 PM CST (2/20)
Length of Visible Light 11h 56m
Length of Day
11h 05m
Waning Crescent, 1% of the Moon is Illuminated
Feb 20
Waning Crescent
Feb 21
New
Feb 29
First Quarter
Mar 8
Full
Mar 14
Last Quarter

Hourly Weather History & Observations

Time (CST) Temp. Windchill Dew Point Humidity Pressure Visibility Wind Dir Wind Speed Gust Speed Precip Events Conditions
12:15 AM 42.8 °F 38.0 °F 37.4 °F 81% 30.00 in 10.0 mi South 8.1 mph - N/A   Clear
12:35 AM 42.8 °F 37.5 °F 39.2 °F 87% 30.00 in 10.0 mi South 9.2 mph - N/A   Clear
12:55 AM 44.6 °F 40.2 °F 41.0 °F 87% 30.01 in 10.0 mi South 8.1 mph - N/A   Clear
1:15 AM 42.8 °F 38.6 °F 41.0 °F 93% 30.01 in 10.0 mi South 6.9 mph - N/A   Clear
1:35 AM 42.8 °F 38.6 °F 41.0 °F 93% 30.01 in 10.0 mi South 6.9 mph - N/A   Clear
1:55 AM 42.8 °F 38.0 °F 41.0 °F 93% 30.00 in 7.0 mi SSE 8.1 mph - N/A   Clear
2:15 AM 42.8 °F 38.6 °F 41.0 °F 93% 30.00 in 7.0 mi SSE 6.9 mph - N/A   Clear
2:35 AM 42.8 °F 38.6 °F 41.0 °F 93% 30.00 in 7.0 mi SSE 6.9 mph - N/A   Clear
2:55 AM 42.8 °F 37.5 °F 41.0 °F 93% 29.99 in 7.0 mi SSE 9.2 mph - N/A   Clear
3:15 AM 42.8 °F 37.0 °F 41.0 °F 93% 29.97 in 7.0 mi SE 10.4 mph - N/A   Clear
3:35 AM 41.0 °F 34.3 °F 41.0 °F 100% 29.96 in 7.0 mi SE 11.5 mph - N/A   Clear
3:55 AM 41.0 °F 34.3 °F 39.2 °F 93% 29.96 in 7.0 mi SSE 11.5 mph - N/A   Clear
4:15 AM 41.0 °F 34.7 °F 41.0 °F 100% 29.96 in 7.0 mi SSE 10.4 mph - N/A   Clear
4:35 AM 42.8 °F 36.6 °F 41.0 °F 93% 29.96 in 7.0 mi SSE 11.5 mph - N/A   Clear
4:55 AM 42.8 °F 36.2 °F 41.0 °F 93% 29.95 in 7.0 mi SSE 12.7 mph 18.4 mph N/A   Clear
5:15 AM 42.8 °F 35.8 °F 41.0 °F 93% 29.95 in 10.0 mi SSE 13.8 mph 18.4 mph N/A   Clear
5:35 AM 42.8 °F 36.2 °F 41.0 °F 93% 29.95 in 10.0 mi SSE 12.7 mph - N/A   Clear
5:55 AM 42.8 °F 36.6 °F 41.0 °F 93% 29.96 in 10.0 mi SSE 11.5 mph 17.3 mph N/A   Clear
6:15 AM 42.8 °F 37.0 °F 41.0 °F 93% 29.96 in 10.0 mi SSE 10.4 mph - N/A   Mostly Cloudy
6:35 AM 42.8 °F 37.0 °F 41.0 °F 93% 29.95 in 10.0 mi SSE 10.4 mph - N/A   Mostly Cloudy
6:55 AM 44.6 °F 38.8 °F 41.0 °F 87% 29.95 in 10.0 mi South 11.5 mph 17.3 mph N/A   Scattered Clouds
7:15 AM 44.6 °F 38.4 °F 41.0 °F 87% 29.96 in 10.0 mi SSE 12.7 mph - N/A   Mostly Cloudy
7:35 AM 46.4 °F 40.4 °F 42.8 °F 87% 29.96 in 10.0 mi South 13.8 mph - N/A   Overcast
7:55 AM 46.4 °F 39.8 °F 42.8 °F 87% 29.96 in 10.0 mi South 16.1 mph 20.7 mph N/A   Overcast
8:15 AM 46.4 °F 39.5 °F 42.8 °F 87% 29.96 in 10.0 mi SSE 17.3 mph 21.9 mph N/A   Overcast
8:35 AM 50.0 °F - 44.6 °F 82% 29.96 in 10.0 mi South 16.1 mph 24.2 mph N/A   Overcast
8:55 AM 50.0 °F - 42.8 °F 76% 29.96 in 10.0 mi SSE 20.7 mph 28.8 mph N/A   Overcast
9:15 AM 50.0 °F - 42.8 °F 76% 29.95 in 10.0 mi South 18.4 mph 25.3 mph N/A   Overcast
9:35 AM 50.0 °F - 42.8 °F 76% 29.94 in 10.0 mi South 23.0 mph 33.4 mph N/A   Overcast
10:15 AM 50.0 °F - 44.6 °F 82% 29.95 in 10.0 mi South 20.7 mph 29.9 mph N/A   Overcast
10:35 AM 51.8 °F - 44.6 °F 76% 29.95 in 10.0 mi South 20.7 mph 29.9 mph N/A   Overcast
10:55 AM 50.0 °F - 44.6 °F 82% 29.95 in 10.0 mi South 18.4 mph 32.2 mph N/A   Overcast
11:15 AM 51.8 °F - 44.6 °F 76% 29.94 in 10.0 mi South 17.3 mph 27.6 mph N/A   Overcast
11:35 AM 51.8 °F - 44.6 °F 76% 29.93 in 10.0 mi South 25.3 mph 34.5 mph N/A   Overcast
12:15 PM 51.8 °F - 44.6 °F 76% 29.92 in 10.0 mi South 23.0 mph 34.5 mph N/A   Overcast
12:35 PM 51.8 °F - 44.6 °F 76% 29.90 in 10.0 mi South 19.6 mph 29.9 mph N/A   Overcast
12:55 PM 51.8 °F - 44.6 °F 76% 29.89 in 10.0 mi South 20.7 mph 27.6 mph N/A   Overcast
1:15 PM 51.8 °F - 44.6 °F 76% 29.87 in 10.0 mi South 21.9 mph 28.8 mph N/A   Overcast
1:35 PM 53.6 °F - 44.6 °F 72% 29.86 in 10.0 mi South 16.1 mph 29.9 mph N/A   Overcast
1:55 PM 53.6 °F - 44.6 °F 72% 29.84 in 10.0 mi South 20.7 mph 25.3 mph N/A   Overcast
2:15 PM 57.2 °F - 44.6 °F 63% 29.84 in 10.0 mi South 17.3 mph 27.6 mph N/A   Mostly Cloudy
2:35 PM 59.0 °F - 44.6 °F 59% 29.82 in 10.0 mi South 23.0 mph 27.6 mph N/A   Scattered Clouds
2:55 PM 59.0 °F - 44.6 °F 59% 29.80 in 10.0 mi South 19.6 mph 27.6 mph N/A   Clear
3:15 PM 59.0 °F - 44.6 °F 59% 29.79 in 10.0 mi South 25.3 mph 28.8 mph N/A   Scattered Clouds
3:35 PM 59.0 °F - 44.6 °F 59% 29.79 in 10.0 mi South 16.1 mph 27.6 mph N/A   Scattered Clouds
3:55 PM 59.0 °F - 44.6 °F 59% 29.77 in 10.0 mi South 21.9 mph 31.1 mph N/A   Scattered Clouds
4:15 PM 57.2 °F - 44.6 °F 63% 29.74 in 10.0 mi South 16.1 mph - N/A   Mostly Cloudy
4:35 PM 53.6 °F - 46.4 °F 77% 29.74 in 5.0 mi South 13.8 mph 21.9 mph 0.04 in Rain , Thunderstorm Heavy Thunderstorms and Rain
4:55 PM 53.6 °F - 50.0 °F 88% 29.77 in 10.0 mi SW 8.1 mph - 0.18 in Thunderstorm Mostly Cloudy
5:15 PM 53.6 °F - 46.4 °F 77% 29.77 in 10.0 mi WSW 15.0 mph 25.3 mph N/A   Mostly Cloudy
5:35 PM 55.4 °F - 39.2 °F 54% 29.78 in 10.0 mi WSW 21.9 mph 28.8 mph N/A   Clear
6:15 PM 55.4 °F - 26.6 °F 33% 29.79 in 7.0 mi WSW 17.3 mph 26.5 mph N/A   Clear
6:35 PM 55.4 °F - 28.4 °F 36% 29.82 in 7.0 mi West 27.6 mph 36.8 mph N/A   Clear
6:55 PM 53.6 °F - 32.0 °F 44% 29.86 in 10.0 mi West 31.1 mph 44.9 mph N/A   Clear
7:15 PM 51.8 °F - 32.0 °F 47% 29.89 in 10.0 mi West 21.9 mph 35.7 mph N/A   Clear
7:35 PM 50.0 °F - 32.0 °F 50% 29.92 in 10.0 mi West 24.2 mph 34.5 mph N/A   Clear
7:55 PM 50.0 °F - 32.0 °F 50% 29.93 in 10.0 mi West 19.6 mph 28.8 mph N/A   Clear
8:15 PM 50.0 °F - 32.0 °F 50% 29.95 in 10.0 mi West 20.7 mph 26.5 mph N/A   Clear
8:35 PM 48.2 °F - 32.0 °F 54% 29.95 in 10.0 mi WNW 18.4 mph 29.9 mph N/A   Clear
8:55 PM 46.4 °F 39.5 °F 32.0 °F 57% 29.97 in 10.0 mi WNW 17.3 mph 25.3 mph N/A   Clear
9:15 PM 46.4 °F 40.4 °F 32.0 °F 57% 29.98 in 10.0 mi West 13.8 mph 17.3 mph N/A   Clear
9:35 PM 46.4 °F 40.7 °F 32.0 °F 57% 29.99 in 10.0 mi West 12.7 mph - N/A   Clear
9:55 PM 46.4 °F 41.5 °F 32.0 °F 57% 30.00 in 10.0 mi West 10.4 mph - N/A   Clear
10:15 PM 44.6 °F 38.8 °F 32.0 °F 61% 30.02 in 10.0 mi West 11.5 mph - N/A   Clear
10:35 PM 44.6 °F 39.7 °F 32.0 °F 61% 30.02 in 10.0 mi WSW 9.2 mph - N/A   Clear
10:55 PM 44.6 °F 39.7 °F 32.0 °F 61% 30.03 in 10.0 mi West 9.2 mph - N/A   Clear
11:15 PM 44.6 °F 39.7 °F 30.2 °F 57% 30.03 in 10.0 mi West 9.2 mph - N/A   Clear
11:35 PM 44.6 °F 40.7 °F 30.2 °F 57% 30.03 in 10.0 mi West 6.9 mph - N/A   Clear